QPF
0.00 0.00 0.00 0.00 0.00 0.00 0.00 0.00 0.00 0.00 0.00 0.00 0.00 0.00 0.00 0.00 0.00 0.00 0.00 0.00 0.00 0.00 0.00 0.01 0.02 0.02 0.02 0.01 0.01 0.01 0.01 0.01 0.01 0.00 0.00 0.00 0.01 0.01 0.01 0.01 0.00 0.00 0.00 0.01 0.01 0.01 0.00 0.00 0.00
0.00 0.00 0.00 0.00 0.00 0.00 0.00 0.00 0.00 0.00 0.00 0.00 0.00 0.00 0.00 0.00 0.00 0.00 0.00 0.00 0.00 0.00 0.00 0.01 0.02 0.02 0.02 0.01 0.01 0.01 0.01 0.00 0.00 0.00 0.00 0.00 0.00 0.00 0.00 0.00 0.00 0.00 0.00 0.00 0.00 0.00 0.00 0.00 0.00
0.00 0.00 0.00 0.00 0.00 0.00 0.00 0.00 0.00 0.00 0.00 0.00 0.00 0.00 0.00 0.00 0.00 0.00 0.00 0.00 0.00 0.00 0.00 0.00 0.01 0.02 0.01 0.01 0.01 0.01 0.00 0.00 0.00 0.00 0.00 0.00 0.00 0.00 0.00 0.00 0.00 0.00 0.00 0.00 0.00 0.00 0.00 0.00 0.00
0.00 0.00 0.00 0.00 0.00 0.00 0.00 0.00 0.00 0.00 0.00 0.00 0.00 0.00 0.00 0.00 0.00 0.00 0.00 0.00 0.00 0.00 0.00 0.00 0.01 0.01 0.01 0.01 0.01 0.01 0.00 0.00 0.00 0.00 0.00 0.00 0.00 0.00 0.00 0.00 0.00 0.00 0.00 0.00 0.00 0.00 0.00 0.00 0.00
0.00 0.00 0.00 0.00 0.00 0.00 0.00 0.00 0.00 0.00 0.00 0.00 0.00 0.00 0.00 0.00 0.00 0.00 0.00 0.00 0.00 0.00 0.00 0.00 0.01 0.01 0.01 0.01 0.01 0.01 0.01 0.00 0.00 0.00 0.00 0.00 0.00 0.00 0.00 0.00 0.00 0.00 0.00 0.00 0.00 0.00 0.00 0.00 0.00
0.00 0.00 0.00 0.00 0.00 0.00 0.00 0.00 0.00 0.00 0.00 0.00 0.00 0.00 0.00 0.00 0.00 0.00 0.00 0.00 0.00 0.00 0.00 0.00 0.01 0.01 0.01 0.01 0.01 0.01 0.01 0.00 0.00 0.00 0.00 0.00 0.00 0.00 0.00 0.00 0.00 0.00 0.00 0.00 0.00 0.00 0.00 0.00 0.00
0.00 0.00 0.00 0.00 0.00 0.00 0.00 0.00 0.00 0.00 0.00 0.00 0.00 0.00 0.00 0.00 0.00 0.00 0.00 0.00 0.00 0.00 0.00 0.00 0.01 0.01 0.01 0.01 0.01 0.01 0.01 0.00 0.00 0.00 0.00 0.00 0.00 0.00 0.00 0.00 0.00 0.00 0.00 0.00 0.00 0.00 0.00 0.00 0.00
0.00 0.00 0.00 0.00 0.00 0.00 0.00 0.00 0.00 0.00 0.00 0.00 0.00 0.00 0.00 0.00 0.00 0.00 0.00 0.00 0.00 0.00 0.00 0.00 0.00 0.00 0.01 0.01 0.01 0.01 0.01 0.00 0.00 0.00 0.00 0.00 0.00 0.00 0.00 0.00 0.00 0.00 0.00 0.00 0.00 0.00 0.00 0.00 0.00
0.00 0.00 0.00 0.00 0.00 0.00 0.00 0.00 0.00 0.00 0.00 0.00 0.00 0.00 0.00 0.00 0.00 0.00 0.00 0.00 0.00 0.00 0.00 0.00 0.00 0.00 0.00 0.00 0.01 0.01 0.01 0.00 0.00 0.00 0.00 0.00 0.00 0.00 0.00 0.00 0.00 0.00 0.00 0.00 0.00 0.00 0.00 0.00 0.00
0.00 0.00 0.00 0.00 0.00 0.00 0.00 0.00 0.00 0.00 0.00 0.00 0.00 0.00 0.00 0.00 0.00 0.00 0.00 0.00 0.00 0.00 0.00 0.00 0.00 0.00 0.00 0.00 0.00 0.00 0.00 0.00 0.00 0.00 0.00 0.00 0.00 0.00 0.00 0.00 0.00 0.00 0.00 0.00 0.00 0.00 0.00 0.00 0.00
0.00 0.00 0.00 0.00 0.00 0.00 0.00 0.00 0.00 0.00 0.00 0.00 0.00 0.00 0.00 0.00 0.00 0.00 0.00 0.00 0.00 0.00 0.00 0.00 0.00 0.00 0.00 0.00 0.00 0.00 0.00 0.00 0.00 0.00 0.00 0.00 0.00 0.00 0.00 0.00 0.00 0.00 0.00 0.00 0.00 0.00 0.00 0.00 0.00
0.00 0.00 0.00 0.00 0.00 0.00 0.00 0.00 0.00 0.00 0.00 0.00 0.00 0.00 0.00 0.00 0.00 0.00 0.00 0.00 0.00 0.00 0.00 0.00 0.00 0.00 0.00 0.00 0.00 0.00 0.00 0.00 0.00 0.00 0.00 0.00 0.00 0.00 0.00 0.00 0.00 0.00 0.00 0.00 0.00 0.00 0.00 0.00 0.00
0.00 0.00 0.00 0.00 0.00 0.00 0.00 0.00 0.00 0.00 0.00 0.00 0.00 0.00 0.00 0.00 0.00 0.00 0.00 0.00 0.00 0.00 0.00 0.00 0.00 0.00 0.00 0.00 0.00 0.00 0.00 0.00 0.00 0.00 0.00 0.00 0.00 0.00 0.00 0.00 0.00 0.00 0.00 0.00 0.00 0.00 0.00 0.00 0.00
0.00 0.00 0.00 0.00 0.00 0.00 0.00 0.00 0.00 0.00 0.00 0.00 0.00 0.00 0.00 0.00 0.00 0.00 0.00 0.00 0.00 0.00 0.00 0.00 0.00 0.00 0.00 0.00 0.00 0.00 0.00 0.00 0.00 0.00 0.00 0.00 0.00 0.00 0.00 0.00 0.00 0.00 0.00 0.00 0.00 0.00 0.00 0.00 0.00
0.00 0.00 0.00 0.00 0.00 0.00 0.00 0.00 0.00 0.00 0.00 0.00 0.00 0.00 0.00 0.00 0.00 0.00 0.00 0.00 0.00 0.00 0.00 0.00 0.00 0.00 0.00 0.00 0.00 0.00 0.00 0.00 0.00 0.00 0.00 0.00 0.00 0.00 0.00 0.00 0.00 0.00 0.00 0.00 0.00 0.00 0.00 0.00 0.00
0.00 0.00 0.00 0.00 0.00 0.00 0.00 0.00 0.00 0.00 0.00 0.00 0.00 0.00 0.00 0.00 0.00 0.00 0.00 0.00 0.00 0.00 0.00 0.00 0.00 0.00 0.00 0.00 0.00 0.00 0.00 0.00 0.00 0.00 0.00 0.00 0.00 0.00 0.00 0.00 0.00 0.00 0.00 0.00 0.00 0.00 0.00 0.00 0.00
0.00 0.00 0.00 0.00 0.00 0.00 0.00 0.00 0.00 0.00 0.00 0.00 0.00 0.00 0.00 0.00 0.00 0.00 0.00 0.00 0.00 0.00 0.00 0.00 0.00 0.00 0.00 0.00 0.00 0.00 0.00 0.00 0.00 0.00 0.00 0.00 0.00 0.00 0.00 0.00 0.00 0.00 0.00 0.00 0.00 0.00 0.00 0.00 0.00
0.00 0.00 0.00 0.00 0.00 0.00 0.00 0.00 0.00 0.00 0.00 0.00 0.00 0.00 0.00 0.00 0.00 0.00 0.00 0.00 0.00 0.00 0.00 0.00 0.00 0.00 0.00 0.00 0.00 0.00 0.00 0.00 0.00 0.00 0.00 0.00 0.00 0.00 0.00 0.00 0.00 0.00 0.00 0.00 0.00 0.00 0.00 0.00 0.00
0.00 0.00 0.00 0.00 0.00 0.00 0.00 0.00 0.00 0.00 0.00 0.00 0.00 0.00 0.00 0.00 0.00 0.00 0.00 0.00 0.00 0.00 0.00 0.00 0.00 0.00 0.00 0.00 0.00 0.00 0.00 0.00 0.00 0.00 0.00 0.00 0.00 0.00 0.00 0.00 0.00 0.00 0.00 0.00 0.00 0.00 0.00 0.00 0.00
0.00 0.00 0.00 0.00 0.00 0.00 0.00 0.00 0.00 0.00 0.00 0.00 0.00 0.00 0.00 0.00 0.00 0.00 0.00 0.00 0.00 0.00 0.00 0.00 0.00 0.00 0.00 0.00 0.00 0.00 0.00 0.00 0.00 0.00 0.00 0.00 0.00 0.00 0.00 0.01 0.01 0.00 0.00 0.00 0.00 0.00 0.00 0.00 0.00
0.01 0.00 0.00 0.00 0.00 0.00 0.00 0.00 0.00 0.00 0.00 0.00 0.00 0.00 0.00 0.00 0.00 0.00 0.00 0.00 0.00 0.00 0.00 0.00 0.00 0.00 0.00 0.00 0.00 0.00 0.00 0.00 0.00 0.00 0.00 0.00 0.00 0.00 0.01 0.01 0.01 0.00 0.00 0.00 0.00 0.00 0.00 0.00 0.00
0.01 0.00 0.00 0.00 0.00 0.00 0.00 0.00 0.00 0.00 0.00 0.00 0.00 0.00 0.00 0.00 0.00 0.00 0.00 0.00 0.00 0.00 0.00 0.00 0.00 0.00 0.00 0.00 0.00 0.00 0.00 0.00 0.00 0.00 0.00 0.01 0.01 0.01 0.01 0.01 0.01 0.01 0.01 0.01 0.01 0.01 0.01 0.01 0.00
0.01 0.01 0.00 0.01 0.01 0.01 0.00 0.00 0.00 0.00 0.00 0.00 0.00 0.00 0.00 0.00 0.00 0.00 0.00 0.00 0.00 0.00 0.00 0.00 0.00 0.00 0.00 0.00 0.00 0.00 0.00 0.00 0.00 0.00 0.00 0.00 0.01 0.01 0.01 0.01 0.01 0.01 0.01 0.01 0.01 0.01 0.01 0.01 0.01
0.01 0.02 0.03 0.03 0.03 0.03 0.01 0.00 0.00 0.00 0.00 0.00 0.00 0.00 0.00 0.00 0.00 0.00 0.00 0.00 0.00 0.00 0.00 0.00 0.00 0.00 0.00 0.00 0.00 0.00 0.00 0.00 0.00 0.00 0.00 0.01 0.01 0.01 0.01 0.01 0.01 0.01 0.01 0.01 0.01 0.01 0.01 0.01 0.00
0.04 0.07 0.11 0.11 0.09 0.04 0.00 0.00 0.00 0.00 0.00 0.00 0.00 0.00 0.00 0.00 0.00 0.00 0.00 0.00 0.00 0.00 0.00 0.00 0.00 0.00 0.00 0.00 0.00 0.00 0.00 0.00 0.00 0.00 0.01 0.00 0.00 0.01 0.01 0.01 0.01 0.01 0.01 0.01 0.01 0.01 0.01 0.01 0.00
0.05 0.05 0.07 0.06 0.03 0.01 0.00 0.00 0.00 0.00 0.00 0.00 0.00 0.00 0.00 0.00 0.00 0.00 0.00 0.00 0.00 0.00 0.00 0.00 0.00 0.00 0.00 0.00 0.00 0.00 0.00 0.00 0.00 0.00 0.00 0.00 0.00 0.00 0.01 0.01 0.01 0.01 0.01 0.01 0.01 0.01 0.01 0.01 0.01
0.03 0.04 0.02 0.02 0.01 0.00 0.00 0.00 0.00 0.00 0.00 0.00 0.00 0.00 0.00 0.00 0.00 0.00 0.00 0.00 0.00 0.00 0.00 0.00 0.00 0.00 0.00 0.00 0.00 0.00 0.00 0.00 0.00 0.00 0.00 0.00 0.00 0.00 0.01 0.01 0.01 0.01 0.01 0.01 0.01 0.01 0.01 0.01 0.01
0.02 0.04 0.04 0.05 0.04 0.01 0.00 0.00 0.00 0.00 0.00 0.00 0.00 0.00 0.00 0.00 0.00 0.00 0.00 0.00 0.00 0.00 0.00 0.00 0.00 0.00 0.00 0.00 0.00 0.00 0.00 0.00 0.00 0.00 0.00 0.00 0.00 0.00 0.00 0.00 0.00 0.01 0.01 0.01 0.01 0.01 0.01 0.01 0.00
0.03 0.05 0.08 0.09 0.04 0.01 0.00 0.00 0.00 0.00 0.00 0.00 0.00 0.00 0.00 0.00 0.00 0.00 0.00 0.00 0.00 0.00 0.00 0.00 0.00 0.00 0.00 0.00 0.00 0.00 0.00 0.00 0.00 0.00 0.00 0.00 0.00 0.00 0.00 0.00 0.00 0.01 0.01 0.01 0.01 0.01 0.00 0.00 0.00
0.02 0.03 0.05 0.07 0.05 0.01 0.00 0.00 0.00 0.00 0.00 0.00 0.00 0.00 0.00 0.00 0.00 0.00 0.00 0.00 0.00 0.00 0.00 0.00 0.00 0.00 0.00 0.00 0.00 0.00 0.00 0.00 0.00 0.00 0.00 0.00 0.00 0.00 0.00 0.00 0.00 0.00 0.00 0.01 0.01 0.00 0.00 0.00 0.00
MSLP
1011.96 1012.76 1013.65 1014.47 1015.10 1015.46 1015.53 1015.35 1015.01 1014.62 1014.29 1014.10 1014.07 1014.18 1014.36 1014.54 1014.63 1014.61 1014.47 1014.25 1014.02 1013.87 1013.86 1014.03 1014.37 1014.86 1015.40 1015.94 1016.42 1016.80 1017.08 1017.27 1017.42 1017.57 1017.74 1017.97 1018.23 1018.50 1018.75 1018.96 1019.10 1019.18 1019.21 1019.20 1019.18 1019.16 1019.17 1019.20 1019.25
1012.31 1013.25 1014.21 1015.02 1015.56 1015.76 1015.62 1015.21 1014.64 1014.04 1013.55 1013.24 1013.13 1013.20 1013.38 1013.59 1013.74 1013.80 1013.75 1013.64 1013.54 1013.50 1013.61 1013.87 1014.30 1014.83 1015.42 1015.98 1016.48 1016.88 1017.19 1017.42 1017.62 1017.83 1018.06 1018.32 1018.60 1018.88 1019.12 1019.31 1019.43 1019.49 1019.50 1019.49 1019.47 1019.46 1019.48 1019.52 1019.58
1012.78 1013.78 1014.73 1015.47 1015.87 1015.89 1015.55 1014.93 1014.17 1013.43 1012.82 1012.44 1012.29 1012.36 1012.55 1012.80 1013.01 1013.13 1013.18 1013.17 1013.18 1013.27 1013.48 1013.83 1014.32 1014.90 1015.51 1016.08 1016.58 1016.99 1017.32 1017.58 1017.82 1018.05 1018.31 1018.59 1018.88 1019.15 1019.38 1019.54 1019.65 1019.69 1019.70 1019.69 1019.68 1019.69 1019.72 1019.78 1019.86
1013.30 1014.29 1015.16 1015.77 1016.01 1015.84 1015.32 1014.55 1013.67 1012.85 1012.20 1011.81 1011.67 1011.76 1011.99 1012.27 1012.52 1012.71 1012.82 1012.91 1013.01 1013.19 1013.48 1013.91 1014.44 1015.04 1015.65 1016.22 1016.71 1017.11 1017.44 1017.71 1017.97 1018.22 1018.50 1018.79 1019.08 1019.33 1019.54 1019.69 1019.78 1019.82 1019.83 1019.84 1019.85 1019.88 1019.94 1020.02 1020.12
1013.78 1014.69 1015.42 1015.86 1015.91 1015.58 1014.93 1014.07 1013.16 1012.34 1011.74 1011.40 1011.32 1011.46 1011.73 1012.05 1012.33 1012.55 1012.71 1012.85 1013.01 1013.25 1013.60 1014.07 1014.62 1015.22 1015.82 1016.36 1016.83 1017.21 1017.53 1017.80 1018.07 1018.34 1018.63 1018.93 1019.21 1019.46 1019.67 1019.81 1019.90 1019.95 1019.98 1020.00 1020.04 1020.10 1020.18 1020.28 1020.39
1014.14 1014.90 1015.45 1015.69 1015.57 1015.10 1014.37 1013.50 1012.63 1011.91 1011.42 1011.20 1011.22 1011.44 1011.76 1012.09 1012.39 1012.62 1012.79 1012.95 1013.14 1013.42 1013.79 1014.26 1014.82 1015.40 1015.96 1016.47 1016.90 1017.26 1017.57 1017.86 1018.14 1018.43 1018.74 1019.05 1019.34 1019.60 1019.81 1019.95 1020.05 1020.12 1020.17 1020.22 1020.29 1020.37 1020.46 1020.56 1020.67
1014.30 1014.87 1015.21 1015.25 1014.97 1014.41 1013.66 1012.84 1012.10 1011.53 1011.20 1011.13 1011.28 1011.58 1011.95 1012.30 1012.59 1012.81 1012.98 1013.13 1013.33 1013.60 1013.97 1014.44 1014.97 1015.52 1016.04 1016.52 1016.92 1017.27 1017.58 1017.88 1018.19 1018.52 1018.86 1019.19 1019.51 1019.78 1020.00 1020.17 1020.28 1020.37 1020.44 1020.51 1020.60 1020.69 1020.78 1020.88 1020.97
1014.25 1014.61 1014.73 1014.58 1014.17 1013.55 1012.83 1012.12 1011.53 1011.15 1011.01 1011.10 1011.38 1011.75 1012.15 1012.51 1012.79 1012.98 1013.13 1013.27 1013.46 1013.73 1014.10 1014.55 1015.05 1015.57 1016.06 1016.51 1016.90 1017.25 1017.58 1017.91 1018.25 1018.62 1019.01 1019.38 1019.73 1020.03 1020.27 1020.45 1020.58 1020.68 1020.77 1020.85 1020.94 1021.03 1021.11 1021.19 1021.26
1014.01 1014.17 1014.09 1013.78 1013.27 1012.63 1011.96 1011.38 1010.95 1010.75 1010.79 1011.02 1011.39 1011.82 1012.24 1012.59 1012.85 1013.02 1013.16 1013.30 1013.49 1013.76 1014.12 1014.56 1015.05 1015.54 1016.02 1016.45 1016.84 1017.21 1017.56 1017.94 1018.34 1018.76 1019.19 1019.61 1019.99 1020.32 1020.57 1020.76 1020.90 1021.01 1021.10 1021.18 1021.26 1021.34 1021.42 1021.47 1021.51
1013.65 1013.63 1013.39 1012.95 1012.38 1011.75 1011.15 1010.68 1010.41 1010.36 1010.51 1010.84 1011.27 1011.72 1012.13 1012.46 1012.70 1012.86 1013.00 1013.15 1013.36 1013.66 1014.04 1014.49 1014.97 1015.46 1015.93 1016.37 1016.77 1017.16 1017.56 1017.98 1018.43 1018.91 1019.39 1019.84 1020.25 1020.59 1020.86 1021.05 1021.18 1021.28 1021.37 1021.44 1021.52 1021.59 1021.65 1021.69 1021.70
1013.24 1013.10 1012.74 1012.23 1011.63 1011.02 1010.50 1010.13 1009.95 1009.99 1010.22 1010.58 1011.01 1011.43 1011.81 1012.10 1012.32 1012.49 1012.65 1012.84 1013.09 1013.43 1013.85 1014.33 1014.84 1015.34 1015.82 1016.27 1016.70 1017.12 1017.56 1018.02 1018.51 1019.03 1019.54 1020.02 1020.44 1020.79 1021.05 1021.24 1021.37 1021.46 1021.54 1021.60 1021.67 1021.73 1021.79 1021.82 1021.83
1012.85 1012.63 1012.22 1011.68 1011.08 1010.52 1010.06 1009.76 1009.65 1009.73 1009.95 1010.28 1010.65 1011.02 1011.33 1011.58 1011.78 1011.96 1012.15 1012.39 1012.71 1013.11 1013.59 1014.11 1014.65 1015.19 1015.69 1016.17 1016.62 1017.07 1017.54 1018.03 1018.55 1019.08 1019.60 1020.09 1020.51 1020.86 1021.12 1021.30 1021.42 1021.51 1021.58 1021.65 1021.72 1021.79 1021.85 1021.89 1021.91
1012.51 1012.26 1011.84 1011.33 1010.78 1010.28 1009.88 1009.62 1009.53 1009.59 1009.76 1010.01 1010.29 1010.55 1010.79 1010.98 1011.16 1011.35 1011.58 1011.88 1012.26 1012.73 1013.26 1013.83 1014.42 1014.99 1015.53 1016.04 1016.52 1017.00 1017.48 1017.99 1018.51 1019.04 1019.55 1020.02 1020.44 1020.77 1021.03 1021.21 1021.34 1021.44 1021.52 1021.60 1021.69 1021.78 1021.86 1021.92 1021.96
1012.21 1011.98 1011.60 1011.14 1010.67 1010.24 1009.90 1009.68 1009.58 1009.59 1009.68 1009.81 1009.97 1010.12 1010.27 1010.41 1010.56 1010.74 1011.00 1011.34 1011.77 1012.29 1012.87 1013.49 1014.11 1014.72 1015.30 1015.85 1016.36 1016.86 1017.36 1017.86 1018.37 1018.88 1019.36 1019.81 1020.21 1020.54 1020.80 1021.00 1021.15 1021.28 1021.39 1021.51 1021.63 1021.75 1021.87 1021.96 1022.03
1011.89 1011.70 1011.40 1011.04 1010.67 1010.33 1010.05 1009.85 1009.73 1009.67 1009.66 1009.69 1009.72 1009.77 1009.82 1009.90 1010.02 1010.19 1010.46 1010.81 1011.26 1011.80 1012.40 1013.05 1013.70 1014.35 1014.98 1015.57 1016.12 1016.65 1017.16 1017.66 1018.14 1018.62 1019.07 1019.49 1019.87 1020.20 1020.47 1020.70 1020.90 1021.08 1021.25 1021.42 1021.58 1021.75 1021.91 1022.04 1022.14
1011.51 1011.39 1011.19 1010.94 1010.68 1010.43 1010.21 1010.03 1009.88 1009.76 1009.66 1009.58 1009.51 1009.46 1009.44 1009.46 1009.55 1009.70 1009.94 1010.28 1010.72 1011.24 1011.84 1012.49 1013.17 1013.85 1014.53 1015.17 1015.78 1016.35 1016.88 1017.38 1017.85 1018.29 1018.71 1019.10 1019.46 1019.80 1020.10 1020.38 1020.64 1020.89 1021.13 1021.36 1021.58 1021.80 1021.99 1022.16 1022.29
1011.04 1011.01 1010.91 1010.78 1010.63 1010.47 1010.30 1010.13 1009.95 1009.77 1009.59 1009.42 1009.27 1009.15 1009.08 1009.06 1009.11 1009.23 1009.44 1009.73 1010.12 1010.60 1011.16 1011.80 1012.49 1013.21 1013.94 1014.65 1015.33 1015.95 1016.53 1017.04 1017.50 1017.92 1018.31 1018.68 1019.04 1019.39 1019.73 1020.07 1020.40 1020.73 1021.04 1021.34 1021.62 1021.88 1022.10 1022.30 1022.45
1010.49 1010.55 1010.57 1010.55 1010.50 1010.41 1010.28 1010.10 1009.88 1009.63 1009.37 1009.12 1008.91 1008.75 1008.65 1008.61 1008.63 1008.73 1008.89 1009.13 1009.45 1009.87 1010.38 1010.98 1011.68 1012.43 1013.22 1014.02 1014.78 1015.48 1016.11 1016.66 1017.13 1017.54 1017.91 1018.26 1018.62 1018.99 1019.38 1019.78 1020.18 1020.58 1020.97 1021.33 1021.65 1021.95 1022.20 1022.42 1022.59
1009.90 1010.07 1010.21 1010.31 1010.34 1010.29 1010.16 1009.94 1009.64 1009.30 1008.96 1008.64 1008.38 1008.19 1008.08 1008.04 1008.07 1008.15 1008.28 1008.46 1008.72 1009.06 1009.51 1010.08 1010.78 1011.56 1012.42 1013.30 1014.16 1014.95 1015.65 1016.24 1016.73 1017.14 1017.51 1017.86 1018.22 1018.61 1019.03 1019.49 1019.96 1020.42 1020.87 1021.28 1021.65 1021.97 1022.24 1022.47 1022.66
1009.31 1009.63 1009.90 1010.11 1010.21 1010.17 1010.00 1009.69 1009.28 1008.82 1008.36 1007.96 1007.65 1007.44 1007.34 1007.33 1007.38 1007.47 1007.59 1007.74 1007.94 1008.23 1008.62 1009.16 1009.84 1010.66 1011.57 1012.53 1013.48 1014.36 1015.14 1015.78 1016.31 1016.74 1017.10 1017.45 1017.81 1018.22 1018.68 1019.18 1019.70 1020.22 1020.71 1021.16 1021.55 1021.89 1022.18 1022.42 1022.64
1008.77 1009.27 1009.70 1010.01 1010.16 1010.11 1009.85 1009.41 1008.85 1008.22 1007.62 1007.11 1006.73 1006.51 1006.43 1006.47 1006.57 1006.71 1006.86 1007.01 1007.19 1007.43 1007.79 1008.29 1008.96 1009.79 1010.74 1011.75 1012.77 1013.73 1014.57 1015.28 1015.84 1016.28 1016.66 1017.01 1017.39 1017.81 1018.29 1018.82 1019.38 1019.94 1020.47 1020.94 1021.36 1021.71 1022.01 1022.27 1022.50
1008.29 1008.99 1009.60 1010.03 1010.22 1010.13 1009.77 1009.17 1008.40 1007.58 1006.80 1006.16 1005.70 1005.46 1005.41 1005.51 1005.70 1005.92 1006.13 1006.32 1006.51 1006.75 1007.08 1007.55 1008.19 1009.01 1009.97 1011.01 1012.06 1013.07 1013.96 1014.70 1015.30 1015.77 1016.16 1016.53 1016.92 1017.35 1017.85 1018.41 1019.00 1019.59 1020.14 1020.64 1021.07 1021.43 1021.74 1022.03 1022.30
1007.81 1008.74 1009.53 1010.09 1010.32 1010.20 1009.72 1008.94 1007.97 1006.94 1005.97 1005.18 1004.64 1004.37 1004.35 1004.53 1004.82 1005.15 1005.46 1005.74 1005.98 1006.23 1006.55 1006.99 1007.59 1008.37 1009.29 1010.32 1011.37 1012.38 1013.30 1014.07 1014.69 1015.19 1015.61 1015.99 1016.40 1016.86 1017.38 1017.96 1018.58 1019.18 1019.76 1020.27 1020.72 1021.10 1021.44 1021.75 1022.05
1007.26 1008.41 1009.38 1010.06 1010.35 1010.20 1009.62 1008.70 1007.54 1006.30 1005.15 1004.23 1003.60 1003.31 1003.33 1003.59 1004.00 1004.47 1004.91 1005.29 1005.61 1005.90 1006.22 1006.62 1007.18 1007.88 1008.74 1009.70 1010.71 1011.70 1012.60 1013.38 1014.02 1014.55 1015.00 1015.42 1015.86 1016.34 1016.89 1017.50 1018.13 1018.76 1019.35 1019.89 1020.35 1020.76 1021.12 1021.47 1021.82
1006.56 1007.89 1009.02 1009.82 1010.17 1010.02 1009.38 1008.34 1007.04 1005.66 1004.37 1003.33 1002.64 1002.34 1002.40 1002.75 1003.29 1003.90 1004.48 1004.98 1005.40 1005.74 1006.07 1006.45 1006.93 1007.55 1008.31 1009.18 1010.11 1011.04 1011.90 1012.68 1013.33 1013.89 1014.38 1014.84 1015.32 1015.84 1016.41 1017.04 1017.69 1018.34 1018.95 1019.50 1020.00 1020.43 1020.83 1021.22 1021.61
1005.66 1007.10 1008.34 1009.24 1009.65 1009.52 1008.88 1007.79 1006.42 1004.96 1003.60 1002.50 1001.78 1001.49 1001.60 1002.04 1002.70 1003.44 1004.16 1004.79 1005.30 1005.71 1006.05 1006.40 1006.82 1007.35 1008.00 1008.75 1009.58 1010.43 1011.25 1012.00 1012.66 1013.25 1013.78 1014.29 1014.81 1015.36 1015.96 1016.60 1017.27 1017.93 1018.55 1019.13 1019.65 1020.12 1020.56 1020.98 1021.41
1004.57 1006.03 1007.32 1008.27 1008.73 1008.66 1008.05 1006.99 1005.64 1004.18 1002.82 1001.73 1001.03 1000.78 1000.94 1001.46 1002.21 1003.07 1003.91 1004.66 1005.26 1005.73 1006.10 1006.44 1006.80 1007.23 1007.77 1008.42 1009.14 1009.90 1010.67 1011.39 1012.06 1012.67 1013.24 1013.79 1014.34 1014.93 1015.54 1016.19 1016.86 1017.52 1018.15 1018.75 1019.29 1019.79 1020.27 1020.73 1021.19
1003.37 1004.75 1006.00 1006.94 1007.44 1007.43 1006.90 1005.94 1004.69 1003.32 1002.04 1001.03 1000.39 1000.18 1000.41 1000.98 1001.81 1002.75 1003.68 1004.52 1005.21 1005.74 1006.15 1006.48 1006.80 1007.17 1007.62 1008.17 1008.79 1009.48 1010.19 1010.89 1011.56 1012.19 1012.78 1013.36 1013.94 1014.53 1015.14 1015.78 1016.44 1017.08 1017.71 1018.31 1018.87 1019.40 1019.91 1020.41 1020.90
1002.17 1003.37 1004.50 1005.38 1005.88 1005.93 1005.51 1004.70 1003.61 1002.41 1001.28 1000.39 999.85 999.72 999.99 1000.60 1001.46 1002.45 1003.43 1004.33 1005.08 1005.66 1006.11 1006.46 1006.78 1007.11 1007.51 1007.99 1008.54 1009.17 1009.83 1010.50 1011.16 1011.80 1012.41 1012.99 1013.57 1014.15 1014.74 1015.35 1015.97 1016.58 1017.19 1017.78 1018.35 1018.90 1019.44 1019.97 1020.50
1001.10 1002.05 1002.98 1003.74 1004.21 1004.30 1004.01 1003.37 1002.48 1001.50 1000.57 999.84 999.42 999.36 999.67 1000.29 1001.15 1002.13 1003.12 1004.04 1004.83 1005.47 1005.97 1006.36 1006.69 1007.03 1007.40 1007.85 1008.36 1008.94 1009.57 1010.22 1010.87 1011.49 1012.10 1012.67 1013.23 1013.78 1014.33 1014.88 1015.44 1016.01 1016.58 1017.15 1017.72 1018.29 1018.85 1019.41 1019.95
Thickness
5735 5736 5735 5727 5708 5691 5695 5710 5721 5728 5734 5742 5744 5739 5733 5731 5729 5733 5743 5746 5746 5743 5739 5737 5734 5731 5728 5726 5723 5721 5719 5717 5715 5714 5712 5711 5709 5708 5707 5706 5704 5703 5702 5701 5700 5698 5697 5696 5695
5733 5732 5726 5713 5693 5683 5694 5713 5720 5730 5739 5739 5741 5739 5737 5739 5744 5741 5741 5743 5744 5742 5738 5736 5733 5729 5726 5724 5721 5719 5716 5714 5712 5711 5709 5707 5706 5704 5703 5701 5700 5698 5697 5695 5694 5693 5692 5690 5689
5730 5728 5713 5699 5689 5688 5704 5719 5724 5735 5738 5739 5737 5740 5741 5742 5742 5741 5745 5744 5742 5739 5736 5734 5731 5728 5725 5722 5719 5717 5714 5712 5710 5708 5706 5704 5702 5700 5699 5697 5695 5693 5692 5690 5688 5687 5686 5684 5683
5723 5714 5704 5693 5694 5702 5713 5725 5729 5731 5736 5739 5738 5735 5740 5745 5745 5745 5745 5743 5740 5737 5734 5732 5729 5726 5723 5720 5717 5714 5712 5709 5707 5705 5702 5700 5698 5696 5694 5692 5690 5688 5687 5685 5683 5682 5680 5678 5677
5714 5703 5693 5687 5696 5708 5718 5726 5729 5730 5733 5737 5736 5733 5736 5742 5745 5745 5743 5741 5738 5735 5732 5730 5728 5725 5722 5718 5715 5712 5709 5707 5704 5702 5699 5697 5694 5692 5690 5687 5685 5684 5682 5680 5678 5676 5674 5673 5671
5699 5692 5680 5682 5696 5710 5720 5729 5730 5731 5732 5734 5733 5731 5735 5739 5740 5741 5740 5738 5736 5733 5730 5728 5726 5723 5720 5716 5713 5710 5707 5704 5701 5699 5696 5693 5691 5688 5685 5683 5681 5679 5677 5675 5673 5671 5669 5667 5665
5691 5683 5681 5688 5694 5706 5722 5730 5729 5729 5730 5733 5736 5729 5734 5735 5738 5738 5737 5734 5731 5729 5727 5726 5724 5721 5717 5714 5711 5708 5704 5701 5698 5696 5693 5690 5687 5684 5682 5679 5676 5674 5672 5670 5667 5665 5663 5661 5659
5693 5684 5684 5686 5692 5705 5723 5730 5734 5732 5733 5738 5737 5731 5732 5736 5735 5734 5731 5729 5727 5726 5724 5723 5721 5718 5715 5712 5709 5705 5702 5699 5696 5693 5689 5686 5683 5680 5677 5674 5672 5669 5667 5664 5662 5660 5657 5655 5653
5691 5675 5676 5687 5693 5707 5721 5725 5732 5737 5733 5734 5736 5738 5740 5737 5734 5729 5726 5723 5722 5722 5722 5721 5719 5716 5713 5710 5706 5703 5699 5696 5693 5689 5686 5682 5679 5676 5673 5670 5667 5664 5661 5659 5656 5654 5652 5649 5647
5679 5671 5684 5698 5704 5710 5717 5722 5726 5728 5727 5729 5731 5731 5732 5732 5731 5729 5727 5724 5723 5722 5720 5719 5717 5714 5711 5707 5704 5700 5697 5693 5689 5686 5682 5678 5675 5671 5668 5665 5662 5659 5656 5653 5651 5648 5646 5643 5641
5677 5677 5690 5699 5707 5710 5713 5718 5723 5722 5720 5728 5731 5729 5726 5727 5728 5728 5728 5728 5727 5725 5721 5718 5715 5712 5709 5705 5701 5698 5694 5690 5686 5683 5679 5674 5670 5667 5663 5659 5656 5653 5651 5648 5645 5642 5640 5637 5635
5672 5681 5690 5698 5705 5707 5709 5713 5716 5719 5727 5737 5738 5734 5728 5727 5727 5729 5728 5727 5725 5722 5721 5718 5714 5710 5707 5703 5699 5695 5691 5687 5683 5679 5675 5671 5666 5662 5658 5654 5651 5648 5645 5642 5639 5636 5633 5631 5628
5667 5677 5686 5693 5698 5701 5705 5707 5712 5718 5728 5731 5731 5728 5727 5728 5730 5731 5731 5727 5724 5722 5720 5717 5713 5709 5705 5701 5697 5692 5689 5685 5680 5676 5672 5668 5663 5658 5654 5650 5646 5643 5639 5636 5633 5630 5627 5625 5622
5666 5671 5679 5685 5690 5695 5697 5701 5705 5716 5722 5723 5723 5723 5725 5727 5729 5727 5725 5724 5723 5722 5720 5717 5713 5708 5704 5699 5695 5691 5687 5682 5677 5673 5669 5664 5660 5655 5650 5645 5642 5638 5635 5631 5628 5624 5621 5618 5616
5661 5661 5666 5675 5682 5688 5689 5689 5700 5714 5715 5716 5717 5719 5722 5724 5726 5727 5729 5728 5727 5724 5721 5717 5713 5707 5702 5698 5694 5689 5684 5680 5675 5670 5665 5660 5656 5651 5646 5641 5637 5634 5630 5626 5622 5618 5615 5612 5609
5648 5646 5649 5669 5675 5680 5677 5680 5702 5709 5708 5709 5712 5714 5717 5721 5724 5727 5729 5728 5726 5723 5719 5716 5712 5707 5702 5697 5692 5687 5682 5677 5673 5667 5662 5657 5652 5647 5642 5637 5633 5629 5625 5621 5616 5612 5608 5605 5602
5630 5630 5642 5659 5670 5672 5670 5678 5697 5704 5702 5705 5708 5711 5714 5718 5722 5725 5727 5728 5726 5723 5720 5715 5712 5707 5702 5696 5691 5685 5680 5675 5670 5664 5659 5654 5649 5644 5639 5634 5630 5625 5620 5616 5611 5607 5603 5599 5596
5621 5629 5638 5648 5663 5662 5661 5672 5689 5695 5697 5700 5704 5708 5711 5715 5724 5728 5728 5727 5725 5722 5719 5715 5711 5707 5700 5693 5687 5681 5676 5671 5667 5662 5657 5652 5646 5641 5635 5630 5626 5621 5616 5611 5606 5601 5597 5593 5589
5626 5628 5633 5645 5657 5654 5655 5665 5680 5688 5689 5694 5699 5703 5709 5717 5725 5727 5727 5726 5723 5720 5717 5714 5709 5705 5699 5692 5686 5680 5675 5670 5665 5660 5655 5650 5644 5638 5632 5627 5622 5617 5612 5607 5602 5596 5591 5586 5582
5617 5619 5625 5636 5647 5647 5647 5656 5673 5682 5687 5695 5701 5705 5711 5716 5720 5722 5723 5722 5721 5720 5718 5714 5710 5705 5700 5696 5690 5684 5677 5670 5665 5658 5652 5647 5642 5636 5630 5625 5619 5614 5608 5602 5597 5592 5586 5581 5576
5609 5613 5619 5625 5634 5638 5639 5645 5663 5679 5686 5694 5701 5707 5712 5716 5719 5721 5721 5721 5720 5719 5718 5716 5711 5706 5701 5696 5687 5679 5671 5664 5658 5654 5649 5645 5640 5634 5629 5623 5617 5611 5606 5599 5594 5588 5583 5576 5569
5605 5617 5617 5617 5615 5613 5623 5619 5650 5668 5678 5688 5697 5703 5709 5714 5718 5719 5719 5719 5719 5720 5718 5715 5711 5706 5700 5693 5686 5679 5674 5668 5663 5657 5650 5643 5638 5632 5626 5620 5614 5609 5603 5597 5591 5585 5580 5573 5566
5605 5613 5609 5608 5603 5600 5608 5607 5638 5659 5669 5685 5696 5703 5709 5713 5715 5716 5718 5719 5719 5717 5715 5712 5708 5703 5698 5692 5687 5680 5674 5669 5661 5653 5646 5640 5635 5629 5623 5617 5611 5605 5600 5594 5588 5582 5576 5571 5564
5598 5595 5591 5587 5584 5585 5605 5600 5625 5651 5672 5686 5697 5702 5706 5709 5710 5712 5714 5714 5713 5711 5709 5707 5704 5700 5695 5690 5684 5679 5673 5665 5657 5650 5643 5637 5631 5626 5620 5614 5609 5603 5597 5591 5585 5579 5573 5567 5561
5586 5579 5572 5571 5571 5585 5603 5601 5630 5662 5678 5687 5694 5699 5703 5704 5705 5706 5707 5708 5707 5705 5704 5702 5699 5695 5691 5686 5681 5677 5670 5663 5657 5650 5643 5636 5629 5623 5618 5612 5606 5601 5595 5589 5583 5576 5570 5564 5557
5582 5581 5575 5574 5576 5584 5591 5600 5636 5664 5677 5684 5688 5692 5696 5698 5698 5701 5703 5703 5702 5701 5699 5697 5695 5692 5687 5683 5678 5673 5666 5660 5654 5648 5642 5636 5630 5624 5618 5610 5604 5598 5592 5586 5579 5573 5567 5560 5554
5574 5575 5584 5576 5574 5577 5583 5604 5630 5656 5667 5675 5680 5684 5688 5692 5694 5696 5697 5697 5696 5695 5693 5693 5690 5687 5683 5679 5674 5668 5662 5657 5651 5645 5639 5634 5628 5621 5614 5608 5601 5595 5588 5582 5576 5569 5563 5556 5550
5578 5577 5571 5567 5566 5571 5584 5597 5624 5651 5664 5672 5676 5680 5685 5687 5688 5690 5690 5690 5689 5688 5687 5685 5684 5682 5679 5674 5669 5664 5659 5653 5647 5641 5635 5630 5624 5617 5610 5604 5597 5591 5584 5578 5571 5565 5558 5551 5545
5565 5566 5569 5568 5568 5573 5579 5606 5641 5656 5667 5671 5676 5680 5681 5681 5682 5683 5683 5683 5682 5680 5678 5677 5676 5674 5671 5668 5663 5658 5654 5648 5642 5637 5632 5626 5619 5613 5607 5601 5594 5587 5580 5574 5567 5561 5554 5547 5540
5568 5569 5567 5568 5567 5573 5580 5609 5648 5653 5662 5666 5670 5673 5675 5676 5676 5675 5675 5673 5672 5671 5670 5669 5668 5667 5665 5661 5657 5652 5648 5642 5637 5632 5627 5621 5615 5609 5603 5597 5590 5583 5576 5570 5563 5556 5549 5543 5536